Вернуться в каталог

FREGAT DEB

АктивенUNKNOWN
NORAD 45878·DEBRIS·🇷🇺 Russia

Запущен Jul 18, 2011 с Baikonur Cosmodrome

Loading…

Ближайшие Пролёты (ближайшие 24 часа)

TLE

СвежийSource: Space-Track

Эпоха: Sep 13, 2026, 20:54 UTC

1 45878U 11037CX  26256.87130355  .00024886  00000-0  32226-2 0  9992
2 45878  51.4183 110.6887 1198970 194.8563 161.3952 12.81217630266347

Отслеживайте FREGAT DEB в реальном времени с AllMySat

Download on the App Store